This is the latest recevied weather packets stored in our database for station/object SQ9PDE-13. If no packets are shown the sender has not sent any weather packets the latest 10 day(s).
| Time | Temp. | Humidity | Pressure | Rain* | Wind** | Luminosity | Snow |
|---|---|---|---|---|---|---|---|
| 1778144388 | 17.78° C | 73% | 1009.4 hPa | - | - | - | - |
| 1778144123 | 18.33° C | 72% | 1009.2 hPa | - | - | - | - |
| 1778144087 | 18.33° C | 72% | 1009.2 hPa | - | - | - | - |
| 1778143787 | 18.33° C | 73% | 1009.3 hPa | - | - | - | - |
| 1778143486 | 18.33° C | 74% | 1009.3 hPa | - | - | - | - |
| 1778143186 | 18.89° C | 74% | 1009.2 hPa | - | - | - | - |
| 1778142885 | 17.78° C | 76% | 1009.2 hPa | - | - | - | - |
| 1778142585 | 17.22° C | 76% | 1009.1 hPa | - | - | - | - |
| 1778142284 | 17.22° C | 76% | 1009.1 hPa | - | - | - | - |
| 1778141984 | 17.22° C | 75% | 1009 hPa | - | - | - | - |
| 1778141683 | 17.22° C | 76% | 1009 hPa | - | - | - | - |
| 1778141383 | 17.22° C | 76% | 1008.9 hPa | - | - | - | - |
| 1778141082 | 16.67° C | 76% | 1009 hPa | - | - | - | - |
| 1778140781 | 17.22° C | 75% | 1008.8 hPa | - | - | - | - |
| 1778140481 | 17.78° C | 73% | 1008.7 hPa | - | - | - | - |
| 1778140180 | 17.78° C | 74% | 1008.7 hPa | - | - | - | - |
| 1778139914 | 17.78° C | 73% | 1008.5 hPa | - | - | - | - |
| 1778139880 | 17.78° C | 73% | 1008.5 hPa | - | - | - | - |
| 1778139579 | 18.89° C | 73% | 1008.4 hPa | - | - | - | - |
| 1778139279 | 18.33° C | 75% | 1008.7 hPa | - | - | - | - |
| 1778138978 | 17.78° C | 76% | 1008.6 hPa | - | - | - | - |
| 1778138678 | 18.33° C | 75% | 1008.5 hPa | - | - | - | - |
| 1778138377 | 17.78° C | 76% | 1008.4 hPa | - | - | - | - |
| 1778138077 | 17.78° C | 77% | 1008.6 hPa | - | - | - | - |
| 1778137776 | 17.78° C | 77% | 1008.5 hPa | - | - | - | - |
* Rain since midnight (hover to see other rain measurements)
** Current wind speed in m/s (hover to see current wind gust speed)